星链-34793 (STARLINK-34793)

导读

STARLINK-34793是由美国于2025年7月31日发射的星链低轨互联网卫星,是SpaceX星链星座部署计划中的一员。星链项目旨在构建全球覆盖的卫星互联网网络,为全球偏远地区、网络不发达区域提供高速宽带接入服务,同时为军事通信等领域提供支撑,该卫星入轨后将参与星座组网,进一步完善星链系统的全球服务能力。

Basic Information
目录编号:
65064
目录名称:
STARLINK-34793
国际标识:
2025-165J
轨道中心:
EARTH
卫星名称:
星链-34793
卫星全名:
星链-34793 (STARLINK-34793)
卫星状态:
在轨 (已飞行401 天)
发射日期:
2025-07-31 UTC
国别 :
美国 (US)
星等 :
--
Orbit Information
数据来源 国际轨道数据
星历时间: 2026-09-05T14:22:07+0800
9小时前
查看轨道信息
半长轴: 6923.086km
偏心率: 0.000175
轨道倾角: 97.287°
近地点辐角 64.813°
升交点赤经 320.043°
平近点角 295.328°
近地点: 543.737km
远地点: 546.161km
周期: 95.545分钟
每日圈数: 15.071388
Detailed Information
固有亮度:
5
最大亮度:
2.5
卫星平台:
Starlink V1.0
覆盖范围:
全球
运营商:
太空探索技术公司
运营商所在国:
美国
制造商(研发单位):
太空探索技术公司
制造商所在国:
美国
使用方式:
暂无
Satellite Introduction
Starlink 计划是 SpaceX 推出的全球卫星互联网项目,通过发射低轨道卫星,为全球尤其是偏远地区提供高速、低延迟的互联网服务。自 2019 年起,Starlink 已部署数千颗卫星,旨在缩小全球数字鸿沟,推动互联网普及。该项目还为军事、航空等行业提供通信支持,带来广泛经济效益。
2D Orbit Map
3D Orbit Map
Orbit Altitude Analysis Chart
Orbit Inclination Analysis Chart
Orbit Comprehensive Analysis Chart
View Comprehensive Chart
Conjunction Data List
Event ID Objects TCA Miss Dist (km) Collision Risk Probability Collision Risk Index (CRI) Action
CDM_260906-201103-949106-506421
2026-09-06T
20:11:28+0000
0.998 km
远距离
2.720832E-5 中风险 0.64
CDM_260905-175006-495006-506421
2026-09-05T
17:50:41+0000
2.378 km
极远距离
1.899828E-6 低风险 0.41
CDM_260906-220203-087906-506421
2026-09-06T
22:02:39+0000
2.581 km
极远距离
1.673503E-6 低风险 0.39